919  
ASUS43 KOAX 230610  
RWRNE  
 
WEATHER ROUNDUP FOR NEBRASKA  
NATIONAL WEATHER SERVICE OMAHA NE  
100 AM CDT SAT JUN 23 2018  
 
NOTES: SATELLITE DATA IS BEING USED TO AUGMENT CLOUD COVER ABOVE  
12000 FEET.  
"FAIR" INDICATES FEW OR NO CLOUDS BELOW 12,000 FEET WITH NO  
SIGNIFICANT WEATHER AND/OR S TO VISIBILITY
.  
 
 
NEZ001>004-019>022-054>056-230700-  
NEBRASKA PANHANDLE  
 
CITY SKY/WX TMP DP RH WIND PRES REMARKS
 
SCOTTSBLUFF MOCLDY 61 61 100 CALM 29.94S  
6HR MIN TEMP: 60; 6HR MAX TEMP: 75; 6HR PCP: 0.39;  
 
ALLIANCE PTCLDY 52 52 100 MISG 29.91F  
6HR MIN TEMP: 52; 6HR MAX TEMP: 74; 6HR PCP: 0.17;  
 
CHADRON MOCLDY 59 54 83 S3 29.88R  
6HR MIN TEMP: 59; 6HR MAX TEMP: 80; 6HR PCP: TRACE;  
 
GORDON FAIR 62 58 85 W8 29.85F  
6HR MIN TEMP: 61; 6HR MAX TEMP: 69;  
 
KIMBALL MOCLDY 58 56 94 SW5 30.00S  
SIDNEY CLOUDY 57 55 93 W3 29.97S  
6HR MIN TEMP: 56; 6HR MAX TEMP: 70; 6HR PCP: TRACE;  
 

 
 
NEZ057>060-069>072-079>082-230700-  
SOUTHWEST NEBRASKA  
 
CITY SKY/WX TMP DP RH WIND PRES REMARKS
 
NORTH PLATTE CLOUDY 64 57 78 S5 29.83F  
6HR MIN TEMP: 61; 6HR MAX TEMP: 71;  
 
IMPERIAL MOCLDY 61 56 83 E5 29.89F  
6HR MIN TEMP: 61; 6HR MAX TEMP: 72; 6HR PCP: 0.01;  
 
LEXINGTON CLOUDY 64 62 91 S5 29.90F  
MCCOOK PTCLDY 60 57 89 CALM 29.90F  
6HR MIN TEMP: 59; 6HR MAX TEMP: 65; 6HR PCP: 0.01;  
 
OGALLALA CLOUDY 60 58 94 W6 29.88F  

 
 
NEZ005>010-023>029-035>040-094-230700-  
NORTH CENTRAL NEBRASKA  
 
CITY SKY/WX TMP DP RH WIND PRES REMARKS
 
VALENTINE CLOUDY 65 60 84 S5 29.78F  
6HR MIN TEMP: 65; 6HR MAX TEMP: 77;  
 
AINSWORTH MOCLDY 63 57 82 S6 29.80F  
BROKEN BOW CLOUDY 63 61 93 S8 29.86S  
6HR MIN TEMP: 63; 6HR MAX TEMP: 73;  
 
O'NEILL CLOUDY 66 62 88 S6 29.83F  
ORD CLOUDY 64 61 90 S7 29.83S  
6HR MIN TEMP: 63; 6HR MAX TEMP: 74;  
 
THEDFORD MOCLDY 63 58 85 S9 29.81F  

 
 
NEZ041-046>049-061>064-073>077-083>087-230700-  
SOUTH CENTRAL NEBRASKA  
 
CITY SKY/WX TMP DP RH WIND PRES REMARKS
 
GRAND ISLAND CLOUDY 64 60 87 S6 29.85S  
6HR MIN TEMP: 63; 6HR MAX TEMP: 71;  
 
AURORA CLOUDY 62 61 99 CALM 29.85S  
HASTINGS CLOUDY 64 60 87 CALM 29.86R  
6HR MIN TEMP: 64; 6HR MAX TEMP: 68;  
 
HEBRON CLOUDY 64 61 89 CALM 29.84R  
HOLDREGE CLOUDY 64 63 97 W7G16 29.90R THUNDER  
KEARNEY CLOUDY 64 60 87 W12 29.90R  
YORK CLOUDY 59 59 100 CALM 29.85R FOG  

 
 
NEZ011>018-030>034-042>045-230700-  
NORTHEAST NEBRASKA  
 
CITY SKY/WX TMP DP RH WIND PRES REMARKS
 
NORFOLK CLOUDY 59 58 96 CALM 29.82F  
6HR MIN TEMP: 59; 6HR MAX TEMP: 71;  
 
ALBION MOCLDY 62 60 93 CALM 29.84S  
BLAIR PTCLDY 63 61 93 CALM 29.82S  
COLUMBUS CLOUDY 60 59 96 CALM 29.84S  
FREMONT MOCLDY 64 63 94 CALM 29.83S  
TEKAMAH CLOUDY 62 61 96 CALM 29.82S  
6HR MIN TEMP: 62; 6HR MAX TEMP: 74;  
 
WAYNE CLOUDY 60 59 96 CALM 29.83F  

 
 
NEZ050>053-065>068-078-088>093-230700-  
SOUTHEAST NEBRASKA  
 
CITY SKY/WX TMP DP RH WIND PRES REMARKS
 
LINCOLN PTCLDY 61 59 93 N3 29.82F  
6HR MIN TEMP: 60; 6HR MAX TEMP: 72;  
 
BEATRICE MOCLDY 62 61 96 CALM 29.81S FOG  
FALLS CITY CLOUDY 61 60 97 E5 29.79F FOG  
6HR MIN TEMP: 61; 6HR MAX TEMP: 70;  
 
NEBRASKA CITY MOCLDY 62 62 100 CALM 29.81F FOG  
PLATTSMOUTH CLOUDY 64 62 94 CALM 29.82F  

 
 
NEZ044-045-051>053-067-230700-  
OMAHA AREA  
 
CITY SKY/WX TMP DP RH WIND PRES REMARKS
 
BLAIR PTCLDY 63 61 93 CALM 29.82S  
FREMONT MOCLDY 64 63 94 CALM 29.83S  
MILLARD PTCLDY 64 63 96 CALM 29.82S FOG  
OFFUTT AFB PTCLDY 61 61 100 CALM 29.80F FOG  
PLATTSMOUTH CLOUDY 64 62 94 CALM 29.82F  

 
 
 
CLICK HERE TO GO TO PREVIOUS BULLETINS.

The Nexlab NE Page Main Text Page